Погода в Попелеве

Россия / Калужская область     54°05′41″N   35°43′09″E
темп.,
°C
ветер,
м/с
пор.,
м/с
влажн.,
%
обл.,
%
осадки,
мм/ч
давл.,
гПа
погр.,
м
13 мая, чт
чт1300:00+5юв38976 0.0 1017170
03:00+5в3119764 0.0 1017251
06:00+7вюв4119589 0.1 1016413
09:00+12юв698592 0.2 1015903
12:00+11юв71187100 1.0 10151207
15:00+14юв696848 2.1 10141627
18:00+14ююв487370 0.8 10131077
21:00+9ююв228999 0.8 101527
14 мая, пт
пт1400:00+8юв229418 0.0 101525
03:00+7юв249593 0.0 101569
06:00+9вюв269299 0.0 1015145
09:00+15юв4777100 0.0 1014497
12:00+19вюв587074 0.1 1013892
15:00+19юв4877100 1.9 1011798
18:00+19ююв612845 3.4 1008822
21:00+16ююв41392100 7.8 1009466
15 мая, сб
сб1500:00+14ююв399719 0.2 1008214
03:00+12юв249788 0.2 100872
06:00+13ююв389797 0.0 1008181
09:00+17ююз5107587 0.0 1009700
12:00+19юз585940 0.0 10101620
15:00+19ююз466627 0.8 10101261
18:00+17ююз378032 1.8 1010544
21:00+13ююв2292100 2.3 101133
16 мая, вс
вс1600:00+12ююв39964 0.4 1011214
03:00+11ююз310970 0.4 1012303
06:00+10ююз399722 0.0 1013310
09:00+15юз46839 0.0 1014514
12:00+19зюз34590 0.0 10141309
15:00+21юз245115 0.0 10141705
18:00+20ююв246475 0.0 1014395
21:00+15юв228483 0.0 101417
17 мая, пн
пн1700:00+13в228899 0.0 101416
03:00+12в369165 0.0 1014108
06:00+14в4128497 0.0 1013352
09:00+19в5107341 0.0 1012501
12:00+24вюв6961100 0.0 1010924
15:00+26юв69565 0.0 10091318
18:00+22вюв612654 0.0 1009689
21:00+19вюв616765 0.0 1008588